This demonstration page uses our WeatherBlox Daily Observations layout. Learn more.

Left ArrowRight Arrow

36.17497, -115.13722

Hourly Observations for September 28, 2017

Temp ( °F °C ) Dew Point ( °F °C ) Humidity (%) Winds ( mph kmh ) Pressure ( in mb ) Visibility ( mi km ) Precip ( " mm )
12:53 am 00:53 Clear 72 22.2 38 3.3 29 29 ESE 3 6 29.99 1016 10 16 0.00 0.00
1:53 am 01:53 Clear 69 20.6 39 3.9 33 33 SSE 5 7 30.00 1016 10 16 0.00 0.00
2:53 am 02:53 Clear 69 20.6 40 4.4 35 35 Calm 30.00 1016 10 16 0.00 0.00
3:53 am 03:53 Clear 67 19.4 39 3.9 36 36 Calm 30.00 1016 10 16 0.00 0.00
4:53 am 04:53 Clear 63 17.2 39 3.9 41 41 NNW 6 9 30.02 1017 10 16 0.00 0.00
5:53 am 05:53 Clear 65 18.3 41 5 42 42 W 5 7 30.04 1017 10 16 0.00 0.00
6:53 am 06:53 Sunny 65 18.3 40 4.4 40 40 Calm 30.06 1018 10 16 0.00 0.00
7:53 am 07:53 Sunny 68 20 40 4.4 36 36 Calm 30.07 1018 10 16 0.00 0.00
8:53 am 08:53 Sunny 72 22.2 39 3.9 30 30 Calm 30.08 1019 10 16 0.00 0.00
9:53 am 09:53 Sunny 74 23.3 34 1.1 23 23 E 5 7 30.08 1019 10 16 0.00 0.00
10:53 am 10:53 Sunny 77 25 39 3.9 26 26 undefined N/A 30.06 1018 10 16 0.00 0.00
11:53 am 11:53 Sunny 79 26.1 38 3.3 23 23 SE 9 15 30.04 1017 10 16 0.00 0.00
12:53 pm 12:53 Sunny 80 26.7 37 2.8 21 21 SE 6 9 30.02 1017 10 16 0.00 0.00
1:53 pm 13:53 Sunny 82 27.8 35 1.7 18 18 Calm 29.98 1015 10 16 0.00 0.00
2:53 pm 14:53 Sunny 84 28.9 34 1.1 17 17 Calm 29.96 1015 10 16 0.00 0.00
3:53 pm 15:53 Sunny 84 28.9 33 0.6 16 16 NNW 3 6 29.94 1014 10 16 0.00 0.00
4:53 pm 16:53 Sunny 84 28.9 33 0.6 16 16 SSE 3 6 29.94 1014 10 16 0.00 0.00
5:53 pm 17:53 Sunny 83 28.3 32 0 16 16 Calm 29.94 1014 10 16 0.00 0.00
6:53 pm 18:53 Clear 81 27.2 31 -0.6 16 16 SE 5 7 29.94 1014 10 16 0.00 0.00
7:53 pm 19:53 Clear 81 27.2 33 0.6 18 18 Calm 29.95 1014 10 16 0.00 0.00
8:53 pm 20:53 Clear 76 24.4 37 2.8 24 24 WNW 5 7 29.96 1015 10 16 0.00 0.00
9:53 pm 21:53 Clear 73 22.8 39 3.9 29 29 N 7 11 29.97 1015 10 16 0.00 0.00
10:53 pm 22:53 Clear 71 21.7 36 2.2 28 28 NNW 3 6 29.97 1015 10 16 0.00 0.00
11:53 pm 23:53 Clear 70 21.1 35 1.7 28 28 NW 8 13 29.98 1015 10 16 0.00 0.00

Powered by AerisWeather